Weather History for KSLI - January, 2013

Change the Weather History Date:

Tuesday, January 8, 2013

  Actual Average Record
Temperature  
Mean Temperature 50 °F -  
Max Temperature 63 °F 66 °F 84 °F (2007)
Min Temperature 38 °F 49 °F 38 °F (2013)
Degree Days  
Heating Degree Days 14    
Moisture  
Dew Point 46 °F    
Average Humidity 91    
Maximum Humidity 100    
Minimum Humidity 63    
Precipitation  
Precipitation 0.00 in - - ()
Sea Level Pressure  
Sea Level Pressure 30.09 in    
Wind  
Wind Speed 2 mph (ENE)    
Max Wind Speed 8 mph    
Max Gust Speed -    
Visibility 6 miles    
Events Fog    
Averages and records for this station are not official NWS values.
T = Trace of Precipitation, MM = Missing Value Source: NWS Daily Summary

Daily Weather History Graph

Daily Weather History Graph

Search for Another Location

Airport or City:

Trip Planner

Search our weather history database for the weather conditions in past years. The results will help you decide how hot, cold, wet, or windy it might be!

Date:

Astronomy

Jan. 08, 2013 Rise Set
Actual Time 6:57 AM PST 5:00 PM PST
Civil Twilight 6:30 AM PST 5:27 PM PST
Nautical Twilight 5:59 AM PST 5:58 PM PST
Astronomical Twilight 5:29 AM PST 6:29 PM PST
Moon 3:36 AM PST (1/8) 2:06 PM PST (1/8)
Length of Visible Light 10h 57m
Length of Day
10h 02m
Waning Crescent, 13% of the Moon is Illuminated
Jan 8
Waning Crescent
Jan 11
New
Jan 18
First Quarter
Jan 26
Full
Feb 3
Last Quarter

Hourly Weather History & Observations

Time (PST) Temp. Windchill Dew Point Humidity Pressure Visibility Wind Dir Wind Speed Gust Speed Precip Events Conditions
12:58 AM 42.8 °F - 39.0 °F 86% 30.05 in 10.0 mi NE 1.2 mph - N/A   Clear
1:58 AM 42.1 °F - 37.8 °F 85% 30.05 in 10.0 mi East 2.3 mph - N/A   Clear
2:58 AM 39.7 °F 37.6 °F 37.4 °F 91% 30.03 in 10.0 mi North 3.5 mph - N/A   Clear
3:58 AM 38.8 °F 36.5 °F 36.1 °F 90% 30.04 in 10.0 mi North 3.5 mph - N/A   Clear
4:58 AM 39.4 °F - 37.9 °F 95% 30.04 in 10.0 mi Calm Calm - N/A   Clear
5:58 AM 38.8 °F - 36.9 °F 93% 30.05 in 10.0 mi NE 2.3 mph - N/A   Clear
6:58 AM 38.8 °F 35.4 °F 35.1 °F 86% 30.08 in 10.0 mi ENE 4.6 mph - N/A   Partly Cloudy
7:58 AM 43.3 °F - 37.2 °F 79% 30.11 in 10.0 mi North 2.3 mph - N/A   Partly Cloudy
8:58 AM 50.9 °F - 40.8 °F 68% 30.12 in 10.0 mi ENE 3.5 mph - N/A   Partly Cloudy
9:58 AM 57.6 °F - 46.6 °F 67% 30.13 in 10.0 mi Calm Calm - N/A   Partly Cloudy
10:58 AM 60.8 °F - 48.0 °F 63% 30.10 in 10.0 mi SSW 4.6 mph - N/A   Partly Cloudy
11:58 AM 62.6 °F - 51.1 °F 66% 30.07 in 10.0 mi South 6.9 mph - N/A   Partly Cloudy
12:58 PM 62.4 °F - 51.8 °F 68% 30.06 in 10.0 mi SSW 6.9 mph - N/A   Partly Cloudy
1:58 PM 63.3 °F - 53.6 °F 71% 30.06 in 10.0 mi SSW 8.1 mph - N/A   Partly Cloudy
2:58 PM 63.3 °F - 52.3 °F 67% 30.06 in 10.0 mi SSW 5.8 mph - N/A   Partly Cloudy
3:58 PM 61.0 °F - 53.6 °F 77% 30.08 in 10.0 mi SW 8.1 mph - N/A   Partly Cloudy
4:58 PM 57.0 °F - 55.6 °F 95% 30.09 in 10.0 mi South 5.8 mph - N/A   Partly Cloudy
5:58 PM 55.6 °F - 55.6 °F 100% 30.10 in 10.0 mi SSE 2.3 mph - N/A   Partly Cloudy
6:58 PM 53.6 °F - 53.6 °F 100% 30.10 in 7.0 mi East 2.3 mph - N/A   Clear
7:58 PM 52.0 °F - 52.0 °F 100% 30.10 in 7.0 mi NE 2.3 mph - N/A   Clear
8:53 PM 48.2 °F - 48.2 °F 100% 30.09 in 2.0 mi East 2.3 mph - N/A   Clear
8:58 PM 48.6 °F - 48.6 °F 100% 30.10 in 2.0 mi East 2.3 mph - N/A   Clear
9:08 PM 48.2 °F - 48.2 °F 100% 30.09 in 3.0 mi Calm Calm - N/A   Clear
9:58 PM 47.5 °F - 47.5 °F 100% 30.11 in 3.0 mi Calm Calm - N/A   Clear
10:03 PM 48.2 °F - 48.2 °F 100% 30.10 in 1.0 mi WNW 2.3 mph - N/A   Clear
10:08 PM 48.2 °F - 48.2 °F 100% 30.11 in 1.2 mi WNW 2.3 mph - N/A   Clear
10:13 PM 46.4 °F - 46.4 °F 100% 30.11 in 0.8 mi Calm Calm - N/A   Clear
10:18 PM 44.6 °F - 44.6 °F 100% 30.10 in 0.5 mi Calm Calm - N/A Fog Fog
10:28 PM 46.4 °F - 46.4 °F 100% 30.10 in 1.2 mi NNW 1.2 mph - N/A   Clear
10:33 PM 46.4 °F - 46.4 °F 100% 30.11 in 3.0 mi NNW 1.2 mph - N/A   Clear
10:43 PM 46.4 °F - 46.4 °F 100% 30.11 in 1.8 mi Calm Calm - N/A   Clear
10:48 PM 46.4 °F - 46.4 °F 100% 30.11 in 0.5 mi Calm Calm - N/A Fog Fog
10:53 PM 46.4 °F - 46.4 °F 100% 30.11 in 0.2 mi NNW 1.2 mph - N/A Fog Fog
10:58 PM 45.9 °F - 45.9 °F 100% 30.12 in 0.2 mi Calm Calm - N/A Fog Fog
11:08 PM 46.4 °F - 46.4 °F 100% 30.11 in 0.5 mi Calm Calm - N/A Fog Fog
11:33 PM 46.4 °F - 46.4 °F 100% 30.11 in 0.8 mi Calm Calm - N/A   Clear
11:38 PM 46.4 °F - 46.4 °F 100% 30.11 in 1.5 mi Calm Calm - N/A   Clear
11:48 PM 46.4 °F - 46.4 °F 100% 30.11 in 3.0 mi East 2.3 mph - N/A   Clear
11:58 PM 46.4 °F - 46.4 °F 100% 30.11 in 2.5 mi Calm Calm - N/A   Clear